Station Historical Data
Daily Summary for July 19, 2017 Units:  Metric    English   Both
« Previous Day
Next Day »
Daily Weekly Monthly Yearly Custom
  High: Low: Average:
Temperature: 29.6 °C 16.4 °C 23.4 °C
Dew Point: 21.9 °C 13.8 °C 18.3 °C
Humidity: 88% 61% 74%
Wind Speed: 17.7km/h 0km/h 4.7km/h
Wind Gust: 25.7km/h - -
Wind- - SW
Pressure: 1017.5 hPa 1014.8 hPa -
Precipitation: 0 mm    
Historical Graphs
 
 
Tabular Data for July 19, 2017
Time Temperature Dew Point Pressure Wind Wind Speed Wind Gust Humidity Rainfall Rate (Hourly)
00:04 18.8 °C 14.3 °C 1017.5 hPa Calm     75% 0 mm
00:09 18.7 °C 14.2 °C 1017.5 hPa Calm     75% 0 mm
00:14 18.5 °C 14.2 °C 1017.5 hPa Calm     76% 0 mm
00:19 18.3 °C 14.2 °C 1017.5 hPa Calm     77% 0 mm
00:24 18.3 °C 14.2 °C 1017.5 hPa Calm     77% 0 mm
00:29 18.3 °C 14.2 °C 1017.5 hPa Calm     77% 0 mm
00:34 18.1 °C 14.2 °C 1017.5 hPa Calm     78% 0 mm
00:39 17.9 °C 14.2 °C 1017.5 hPa Calm     79% 0 mm
00:44 17.8 °C 14.1 °C 1017.5 hPa Calm     79% 0 mm
00:49 17.7 °C 14.2 °C 1017.5 hPa Calm     80% 0 mm
00:54 17.7 °C 14.4 °C 1017.5 hPa Calm     81% 0 mm
00:59 17.6 °C 14.3 °C 1017.5 hPa Calm     81% 0 mm
01:04 17.7 °C 14.4 °C 1017.5 hPa Calm     81% 0 mm
01:09 17.7 °C 14.4 °C 1017.5 hPa Calm   4.8 km/h 81% 0 mm
01:14 17.8 °C 14.3 °C 1017.5 hPa Calm   4.8 km/h 80% 0 mm
01:19 17.8 °C 14.3 °C 1017.5 hPa Calm     80% 0 mm
01:24 17.8 °C 14.3 °C 1017.5 hPa Calm     80% 0 mm
01:29 17.8 °C 14.3 °C 1017.5 hPa Calm     80% 0 mm
01:34 17.7 °C 14.2 °C 1017.5 hPa Calm     80% 0 mm
01:39 17.6 °C 14.1 °C 1017.5 hPa Calm     80% 0 mm
01:44 17.5 °C 14 °C 1017.5 hPa Calm     80% 0 mm
01:49 17.4 °C 14.2 °C 1017.5 hPa Calm     81% 0 mm
01:54 17.4 °C 14.1 °C 1017.5 hPa Calm   1.6 km/h 81% 0 mm
01:59 17.3 °C 14.1 °C 1017.2 hPa Calm   1.6 km/h 81% 0 mm
02:04 17.3 °C 14.1 °C 1017.5 hPa Calm     81% 0 mm
02:09 17.2 °C 13.9 °C 1017.2 hPa Calm     81% 0 mm
02:14 17.2 °C 13.9 °C 1017.2 hPa Calm     81% 0 mm
02:19 17.2 °C 13.9 °C 1017.2 hPa Calm     81% 0 mm
02:24 17.2 °C 13.9 °C 1017.2 hPa Calm     81% 0 mm
02:29 17.1 °C 13.9 °C 1016.8 hPa Calm     82% 0 mm
02:34 17 °C 13.9 °C 1016.8 hPa Calm     82% 0 mm
02:39 17 °C 13.9 °C 1016.8 hPa Calm   1.6 km/h 82% 0 mm
02:44 17 °C 13.9 °C 1016.8 hPa Calm   3.2 km/h 82% 0 mm
02:49 17.1 °C 14 °C 1016.8 hPa Calm     82% 0 mm
02:54 17.1 °C 13.8 °C 1016.8 hPa Calm     81% 0 mm
02:59 17.1 °C 13.9 °C 1016.8 hPa Calm     82% 0 mm
03:04 17.1 °C 13.9 °C 1016.8 hPa Calm     82% 0 mm
03:09 17 °C 13.9 °C 1016.8 hPa Calm     82% 0 mm
03:14 16.9 °C 13.8 °C 1016.8 hPa Calm     82% 0 mm
03:19 16.9 °C 14 °C 1016.8 hPa Calm     83% 0 mm
03:24 16.9 °C 13.8 °C 1016.5 hPa Calm     82% 0 mm
03:29 16.8 °C 13.9 °C 1016.5 hPa Calm     83% 0 mm
03:34 16.8 °C 13.9 °C 1016.5 hPa Calm     83% 0 mm
03:39 16.8 °C 13.9 °C 1016.8 hPa Calm     83% 0 mm
03:44 16.8 °C 14.1 °C 1016.8 hPa Calm     84% 0 mm
03:49 16.8 °C 14.1 °C 1016.5 hPa Calm     84% 0 mm
03:54 16.7 °C 14 °C 1016.8 hPa Calm     84% 0 mm
03:59 16.7 °C 14 °C 1016.8 hPa Calm     84% 0 mm
04:04 16.8 °C 14.1 °C 1016.8 hPa Calm     84% 0 mm
04:09 16.7 °C 13.9 °C 1016.5 hPa Calm     84% 0 mm
04:14 16.6 °C 13.9 °C 1016.5 hPa Calm     84% 0 mm
04:19 16.5 °C 13.8 °C 1016.8 hPa Calm     84% 0 mm
04:24 16.5 °C 13.9 °C 1016.8 hPa Calm     85% 0 mm
04:29 16.6 °C 14.1 °C 1016.8 hPa Calm     85% 0 mm
04:34 16.7 °C 13.9 °C 1016.8 hPa Calm     84% 0 mm
04:39 16.5 °C 13.8 °C 1016.8 hPa Calm     84% 0 mm
04:44 16.5 °C 13.9 °C 1016.8 hPa Calm     85% 0 mm
04:49 16.4 °C 13.9 °C 1016.8 hPa Calm     85% 0 mm
04:54 16.5 °C 13.9 °C 1016.8 hPa Calm     85% 0 mm
04:59 16.6 °C 14 °C 1016.8 hPa Calm     85% 0 mm
05:04 16.6 °C 14 °C 1016.8 hPa Calm     85% 0 mm
05:09 16.4 °C 13.9 °C 1016.8 hPa Calm     85% 0 mm
05:14 16.4 °C 13.8 °C 1016.8 hPa Calm     85% 0 mm
05:19 16.4 °C 13.8 °C 1016.8 hPa Calm     85% 0 mm
05:24 16.4 °C 13.9 °C 1016.8 hPa Calm     85% 0 mm
05:29 16.5 °C 13.9 °C 1016.8 hPa Calm   3.2 km/h 85% 0 mm
05:34 16.5 °C 13.9 °C 1016.8 hPa Calm     85% 0 mm
05:39 16.7 °C 14.2 °C 1016.8 hPa Calm     85% 0 mm
05:44 16.8 °C 14.1 °C 1016.5 hPa Calm   4.8 km/h 84% 0 mm
05:49 16.9 °C 14 °C 1016.5 hPa South 1.6 km/h 4.8 km/h 83% 0 mm
05:54 16.9 °C 14 °C 1016.8 hPa Calm   3.2 km/h 83% 0 mm
05:59 16.9 °C 14.1 °C 1016.8 hPa Calm     83% 0 mm
06:04 16.9 °C 14.1 °C 1016.8 hPa Calm     83% 0 mm
06:09 16.8 °C 13.9 °C 1016.8 hPa Calm     83% 0 mm
06:14 16.7 °C 14 °C 1016.8 hPa Calm     84% 0 mm
06:19 16.9 °C 14.1 °C 1016.8 hPa Calm     83% 0 mm
06:24 17 °C 14.1 °C 1016.8 hPa Calm     83% 0 mm
06:29 17.2 °C 14.3 °C 1016.8 hPa South 3.2 km/h 4.8 km/h 83% 0 mm
06:34 17.3 °C 14.2 °C 1016.8 hPa South 1.6 km/h 4.8 km/h 82% 0 mm
06:39 17.6 °C 14.3 °C 1016.8 hPa South 1.6 km/h 3.2 km/h 81% 0 mm
06:44 17.8 °C 14.5 °C 1016.8 hPa South 1.6 km/h 3.2 km/h 81% 0 mm
06:49 17.9 °C 14.4 °C 1016.8 hPa South 1.6 km/h 3.2 km/h 80% 0 mm
06:54 18.2 °C 14.7 °C 1016.8 hPa Calm   3.2 km/h 80% 0 mm
06:59 18.4 °C 14.7 °C 1016.8 hPa Calm     79% 0 mm
07:04 18.7 °C 14.9 °C 1016.8 hPa SSW 3.2 km/h 4.8 km/h 79% 0 mm
07:09 18.8 °C 14.9 °C 1016.8 hPa Calm   6.4 km/h 78% 0 mm
07:14 19.1 °C 14.9 °C 1016.8 hPa South 3.2 km/h 4.8 km/h 77% 0 mm
07:19 19.2 °C 15.1 °C 1016.8 hPa Calm   6.4 km/h 77% 0 mm
07:24 19.4 °C 15.1 °C 1017.2 hPa Calm   6.4 km/h 76% 0 mm
07:29 19.7 °C 15.2 °C 1017.2 hPa SSW 1.6 km/h 4.8 km/h 75% 0 mm
07:34 20 °C 15.4 °C 1017.2 hPa Calm   6.4 km/h 75% 0 mm
07:39 20.2 °C 15.6 °C 1017.2 hPa Calm   4.8 km/h 75% 0 mm
07:44 20.3 °C 15.5 °C 1017.2 hPa SW 1.6 km/h 4.8 km/h 74% 0 mm
07:49 20.3 °C 15.6 °C 1017.2 hPa Calm   4.8 km/h 74% 0 mm
07:54 20.8 °C 16 °C 1017.2 hPa SSW 1.6 km/h 4.8 km/h 74% 0 mm
07:59 21.1 °C 16 °C 1017.2 hPa SSW 1.6 km/h 6.4 km/h 73% 0 mm
08:04 21.2 °C 15.9 °C 1017.2 hPa SSW 1.6 km/h 8 km/h 72% 0 mm
08:09 21.5 °C 16.2 °C 1017.2 hPa SSW 1.6 km/h 4.8 km/h 72% 0 mm
08:14 21.7 °C 16.2 °C 1016.8 hPa SSW 1.6 km/h 4.8 km/h 71% 0 mm
08:19 21.8 °C 16.3 °C 1016.8 hPa South 3.2 km/h 4.8 km/h 71% 0 mm
08:24 21.9 °C 16.4 °C 1016.8 hPa SSE 1.6 km/h 4.8 km/h 71% 0 mm
08:29 21.9 °C 16.4 °C 1016.8 hPa Calm   4.8 km/h 71% 0 mm
08:34 21.9 °C 16.4 °C 1016.8 hPa South 3.2 km/h 3.2 km/h 71% 0 mm
08:39 22.1 °C 16.8 °C 1016.8 hPa Calm   6.4 km/h 72% 0 mm
08:44 22.2 °C 16.7 °C 1016.8 hPa SSW 1.6 km/h 6.4 km/h 71% 0 mm
08:49 22.2 °C 16.7 °C 1016.8 hPa SSW 1.6 km/h 4.8 km/h 71% 0 mm
08:54 22.4 °C 17.1 °C 1016.8 hPa Calm     72% 0 mm
08:59 22.6 °C 17.1 °C 1016.8 hPa Calm     71% 0 mm
09:04 22.7 °C 16.9 °C 1016.8 hPa Calm     70% 0 mm
09:09 22.8 °C 17.1 °C 1016.8 hPa Calm     70% 0 mm
09:14 22.9 °C 17.2 °C 1016.8 hPa SSW 1.6 km/h 6.4 km/h 70% 0 mm
09:19 23.2 °C 17.4 °C 1016.8 hPa Calm   4.8 km/h 70% 0 mm
09:24 23.9 °C 17.8 °C 1016.8 hPa SW 3.2 km/h 8 km/h 69% 0 mm
09:29 24.7 °C 18.2 °C 1016.8 hPa SW 4.8 km/h 9.7 km/h 67% 0 mm
09:34 25.2 °C 18.1 °C 1016.8 hPa SSE 9.7 km/h 11.3 km/h 65% 0 mm
09:39 25.6 °C 18.6 °C 1016.8 hPa WSW 8 km/h 9.7 km/h 65% 0 mm
09:44 26.1 °C 18.4 °C 1016.8 hPa South 1.6 km/h 8 km/h 63% 0 mm
09:49 26.2 °C 18.8 °C 1016.8 hPa SW 4.8 km/h 9.7 km/h 64% 0 mm
09:54 25.9 °C 18.8 °C 1016.5 hPa SW 4.8 km/h 9.7 km/h 65% 0 mm
09:59 26.1 °C 19 °C 1016.5 hPa WSW 6.4 km/h 11.3 km/h 65% 0 mm
10:04 26.7 °C 19.1 °C 1016.5 hPa SW 4.8 km/h 12.9 km/h 63% 0 mm
10:09 26.7 °C 19.1 °C 1016.5 hPa SSW 3.2 km/h 11.3 km/h 63% 0 mm
10:14 26.8 °C 18.9 °C 1016.5 hPa SW 6.4 km/h 11.3 km/h 62% 0 mm
10:19 27.2 °C 19.8 °C 1016.5 hPa SW 6.4 km/h 12.9 km/h 64% 0 mm
10:24 27.3 °C 19.3 °C 1016.5 hPa SW 6.4 km/h 12.9 km/h 62% 0 mm
10:29 27.4 °C 19.8 °C 1016.5 hPa NW 6.4 km/h 12.9 km/h 63% 0 mm
10:34 27.4 °C 19.3 °C 1016.8 hPa SSW 9.7 km/h 12.9 km/h 61% 0 mm
10:39 27.7 °C 19.4 °C 1016.5 hPa WSW 4.8 km/h 12.9 km/h 61% 0 mm
10:44 27.7 °C 19.7 °C 1016.5 hPa SW 8 km/h 16.1 km/h 62% 0 mm
10:49 28.1 °C 20.3 °C 1016.5 hPa South 14.5 km/h 16.1 km/h 63% 0 mm
10:54 27.9 °C 19.7 °C 1016.5 hPa SW 8 km/h 16.1 km/h 61% 0 mm
10:59 27.9 °C 19.9 °C 1016.8 hPa SSW 6.4 km/h 14.5 km/h 62% 0 mm
11:04 27.9 °C 19.9 °C 1016.8 hPa WSW 9.7 km/h 20.9 km/h 62% 0 mm
11:09 28.1 °C 20.1 °C 1016.5 hPa WSW 12.9 km/h 19.3 km/h 62% 0 mm
11:14 27.9 °C 20.2 °C 1016.5 hPa WSW 8 km/h 19.3 km/h 63% 0 mm
11:19 28.3 °C 20.3 °C 1016.5 hPa WSW 8 km/h 17.7 km/h 62% 0 mm
11:24 27.9 °C 20.2 °C 1016.5 hPa WSW 8 km/h 16.1 km/h 63% 0 mm
11:29 28.1 °C 20.4 °C 1016.5 hPa WSW 8 km/h 20.9 km/h 63% 0 mm
11:34 27.8 °C 20.4 °C 1016.5 hPa WSW 9.7 km/h 20.9 km/h 64% 0 mm
11:39 28.2 °C 20.7 °C 1016.5 hPa WSW 9.7 km/h 19.3 km/h 64% 0 mm
11:44 27.8 °C 20.4 °C 1016.5 hPa SW 9.7 km/h 20.9 km/h 64% 0 mm
11:49 27.9 °C 20.7 °C 1016.5 hPa SW 8 km/h 16.1 km/h 65% 0 mm
11:54 28.2 °C 20.5 °C 1016.5 hPa WSW 8 km/h 16.1 km/h 63% 0 mm
11:59 28.2 °C 20.7 °C 1016.5 hPa WSW 8 km/h 16.1 km/h 64% 0 mm
12:04 28.9 °C 21.4 °C 1016.5 hPa SW 8 km/h 16.1 km/h 64% 0 mm
12:09 28.8 °C 20.8 °C 1016.5 hPa WSW 8 km/h 17.7 km/h 62% 0 mm
12:14 28.5 °C 20.8 °C 1016.5 hPa WSW 8 km/h 17.7 km/h 63% 0 mm
12:19 28.3 °C 20.8 °C 1016.5 hPa WSW 8 km/h 17.7 km/h 64% 0 mm
12:24 27.8 °C 20.7 °C 1016.5 hPa WSW 8 km/h 17.7 km/h 65% 0 mm
12:29 27.7 °C 20.5 °C 1016.5 hPa SW 9.7 km/h 22.5 km/h 65% 0 mm
12:34 27.8 °C 20.6 °C 1016.5 hPa SW 9.7 km/h 22.5 km/h 65% 0 mm
12:39 27.5 °C 20.3 °C 1016.5 hPa SSW 8 km/h 17.7 km/h 65% 0 mm
12:44 27.6 °C 20.6 °C 1016.8 hPa SW 8 km/h 17.7 km/h 66% 0 mm
12:49 27.6 °C 20.6 °C 1016.5 hPa WSW 3.2 km/h 16.1 km/h 66% 0 mm
12:54 27.7 °C 20.7 °C 1016.5 hPa SW 9.7 km/h 14.5 km/h 66% 0 mm
12:59 27.8 °C 20.9 °C 1016.5 hPa WSW 6.4 km/h 16.1 km/h 66% 0 mm
13:04 28.2 °C 20.9 °C 1016.5 hPa South 4.8 km/h 16.1 km/h 65% 0 mm
13:09 28.2 °C 20.9 °C 1016.5 hPa WSW 11.3 km/h 20.9 km/h 65% 0 mm
13:14 28.1 °C 20.7 °C 1016.5 hPa West 8 km/h 19.3 km/h 64% 0 mm
13:19 27.9 °C 20.9 °C 1016.5 hPa WSW 9.7 km/h 19.3 km/h 66% 0 mm
13:24 27.6 °C 20.6 °C 1016.5 hPa WSW 11.3 km/h 19.3 km/h 66% 0 mm
13:29 27.7 °C 20.7 °C 1016.5 hPa SW 9.7 km/h 19.3 km/h 66% 0 mm
13:34 27.9 °C 21 °C 1016.1 hPa SW 11.3 km/h 17.7 km/h 66% 0 mm
13:39 28.2 °C 21.4 °C 1016.5 hPa SW 6.4 km/h 16.1 km/h 67% 0 mm
13:44 28.3 °C 21.6 °C 1016.1 hPa West 6.4 km/h 17.7 km/h 67% 0 mm
13:49 28.3 °C 21.3 °C 1016.1 hPa SW 8 km/h 17.7 km/h 66% 0 mm
13:54 28.2 °C 20.8 °C 1016.1 hPa WSW 8 km/h 17.7 km/h 64% 0 mm
13:59 27.9 °C 21.2 °C 1016.1 hPa West 12.9 km/h 17.7 km/h 67% 0 mm
14:04 28 °C 21.1 °C 1016.1 hPa SW 12.9 km/h 14.5 km/h 66% 0 mm
14:09 27.8 °C 20.7 °C 1016.1 hPa WSW 6.4 km/h 20.9 km/h 65% 0 mm
14:14 27.4 °C 20.8 °C 1015.8 hPa WSW 9.7 km/h 20.9 km/h 67% 0 mm
14:19 27.3 °C 20.9 °C 1016.1 hPa SW 9.7 km/h 17.7 km/h 68% 0 mm
14:24 27.4 °C 21 °C 1015.8 hPa SW 9.7 km/h 17.7 km/h 68% 0 mm
14:29 27.9 °C 21.2 °C 1015.8 hPa West 8 km/h 24.1 km/h 67% 0 mm
14:34 28 °C 21.1 °C 1015.8 hPa West 6.4 km/h 19.3 km/h 66% 0 mm
14:39 28.3 °C 21.4 °C 1015.8 hPa WSW 12.9 km/h 22.5 km/h 66% 0 mm
14:44 28.2 °C 21.5 °C 1015.8 hPa WSW 8 km/h 22.5 km/h 67% 0 mm
14:49 28 °C 21.1 °C 1015.8 hPa WSW 9.7 km/h 17.7 km/h 66% 0 mm
14:54 28.2 °C 21.7 °C 1015.8 hPa WSW 9.7 km/h 17.7 km/h 68% 0 mm
14:59 28.2 °C 21.3 °C 1015.5 hPa WSW 9.7 km/h 19.3 km/h 66% 0 mm
15:04 28.7 °C 21.7 °C 1015.5 hPa WSW 9.7 km/h 20.9 km/h 66% 0 mm
15:09 28.9 °C 21.7 °C 1015.5 hPa SW 11.3 km/h 20.9 km/h 65% 0 mm
15:14 29 °C 21.8 °C 1015.5 hPa SW 9.7 km/h 19.3 km/h 65% 0 mm
15:19 29.4 °C 21.9 °C 1015.5 hPa SW 14.5 km/h 16.1 km/h 64% 0 mm
15:24 29.3 °C 21.6 °C 1015.5 hPa WSW 6.4 km/h 24.1 km/h 63% 0 mm
15:29 29.2 °C 21.1 °C 1015.5 hPa SW 14.5 km/h 20.9 km/h 62% 0 mm
15:34 29.2 °C 21.1 °C 1015.1 hPa SW 17.7 km/h 20.9 km/h 62% 0 mm
15:39 29.1 °C 20.8 °C 1015.1 hPa SSW 11.3 km/h 22.5 km/h 61% 0 mm
15:44 29.1 °C 21.3 °C 1015.1 hPa WSW 11.3 km/h 22.5 km/h 63% 0 mm
15:49 29.1 °C 21.3 °C 1015.1 hPa WSW 11.3 km/h 22.5 km/h 63% 0 mm
15:54 29.4 °C 21.7 °C 1015.1 hPa SW 9.7 km/h 22.5 km/h 63% 0 mm
15:59 29.2 °C 21.4 °C 1015.1 hPa SW 9.7 km/h 20.9 km/h 63% 0 mm
16:04 29.6 °C 21.2 °C 1015.1 hPa WSW 6.4 km/h 17.7 km/h 61% 0 mm
16:09 29.3 °C 21 °C 1015.1 hPa WSW 12.9 km/h 16.1 km/h 61% 0 mm
16:14 29 °C 21 °C 1015.1 hPa West 9.7 km/h 20.9 km/h 62% 0 mm
16:19 28.9 °C 20.7 °C 1015.1 hPa WSW 11.3 km/h 24.1 km/h 61% 0 mm
16:24 29.1 °C 21.3 °C 1015.1 hPa WSW 11.3 km/h 24.1 km/h 63% 0 mm
16:29 29.1 °C 21.1 °C 1015.1 hPa WSW 8 km/h 19.3 km/h 62% 0 mm
16:34 28.8 °C 21.1 °C 1015.1 hPa SW 6.4 km/h 17.7 km/h 63% 0 mm
16:39 28.6 °C 21.1 °C 1015.5 hPa WSW 8 km/h 19.3 km/h 64% 0 mm
16:44 28.5 °C 20.8 °C 1015.5 hPa WSW 8 km/h 19.3 km/h 63% 0 mm
16:49 28.1 °C 20.8 °C 1015.8 hPa WSW 9.7 km/h 19.3 km/h 65% 0 mm
16:54 28.1 °C 21.2 °C 1015.8 hPa WSW 8 km/h 19.3 km/h 66% 0 mm
16:59 27.9 °C 20.9 °C 1015.8 hPa SW 8 km/h 19.3 km/h 66% 0 mm
17:04 27.9 °C 21.2 °C 1015.8 hPa West 4.8 km/h 12.9 km/h 67% 0 mm
17:09 28.3 °C 21.4 °C 1015.1 hPa SSW 8 km/h 16.1 km/h 66% 0 mm
17:14 28.6 °C 21.3 °C 1015.5 hPa WSW 8 km/h 16.1 km/h 65% 0 mm
17:19 28.8 °C 21.8 °C 1015.1 hPa WSW 8 km/h 19.3 km/h 66% 0 mm
17:24 28.8 °C 21.3 °C 1015.1 hPa WSW 8 km/h 16.1 km/h 64% 0 mm
17:29 28.7 °C 21.2 °C 1014.8 hPa SSW 8 km/h 19.3 km/h 64% 0 mm
17:34 28.5 °C 21.3 °C 1014.8 hPa WSW 14.5 km/h 20.9 km/h 65% 0 mm
17:39 28.3 °C 21.4 °C 1014.8 hPa SW 8 km/h 24.1 km/h 66% 0 mm
17:44 28.2 °C 20.9 °C 1014.8 hPa WSW 11.3 km/h 24.1 km/h 65% 0 mm
17:49 27.9 °C 20.8 °C 1014.8 hPa SW 11.3 km/h 25.7 km/h 65% 0 mm
17:54 28 °C 21.1 °C 1014.8 hPa WSW 11.3 km/h 22.5 km/h 66% 0 mm
17:59 28.2 °C 20.9 °C 1015.1 hPa WSW 11.3 km/h 20.9 km/h 65% 0 mm
18:04 28.1 °C 21.2 °C 1015.1 hPa West 9.7 km/h 17.7 km/h 66% 0 mm
18:09 28 °C 21.1 °C 1015.1 hPa WSW 9.7 km/h 20.9 km/h 66% 0 mm
18:14 28.1 °C 21.4 °C 1015.1 hPa WSW 9.7 km/h 20.9 km/h 67% 0 mm
18:19 27.9 °C 21.2 °C 1014.8 hPa WSW 9.7 km/h 19.3 km/h 67% 0 mm
18:24 27.7 °C 21.2 °C 1014.8 hPa WSW 9.7 km/h 22.5 km/h 68% 0 mm
18:29 27.5 °C 21.3 °C 1014.8 hPa West 6.4 km/h 19.3 km/h 69% 0 mm
18:34 27.4 °C 21.2 °C 1014.8 hPa WSW 9.7 km/h 19.3 km/h 69% 0 mm
18:39 27.3 °C 21.3 °C 1014.8 hPa WSW 8 km/h 17.7 km/h 70% 0 mm
18:44 27.1 °C 21.2 °C 1014.8 hPa WSW 9.7 km/h 19.3 km/h 70% 0 mm
18:49 26.8 °C 21.1 °C 1015.1 hPa WSW 9.7 km/h 22.5 km/h 71% 0 mm
18:54 26.7 °C 21 °C 1015.1 hPa WSW 6.4 km/h 19.3 km/h 71% 0 mm
18:59 26.7 °C 21.2 °C 1015.1 hPa SSW 8 km/h 14.5 km/h 72% 0 mm
19:04 26.4 °C 21.2 °C 1015.1 hPa WSW 9.7 km/h 20.9 km/h 73% 0 mm
19:09 26.3 °C 21.1 °C 1015.1 hPa SW 11.3 km/h 20.9 km/h 73% 0 mm
19:14 26.2 °C 21.2 °C 1014.8 hPa WSW 9.7 km/h 19.3 km/h 74% 0 mm
19:19 26.1 °C 21.1 °C 1014.8 hPa West 6.4 km/h 25.7 km/h 74% 0 mm
19:24 26 °C 21 °C 1014.8 hPa WSW 11.3 km/h 14.5 km/h 74% 0 mm
19:29 25.9 °C 20.9 °C 1015.1 hPa SW 4.8 km/h 17.7 km/h 74% 0 mm
19:34 25.9 °C 20.9 °C 1015.1 hPa WSW 8 km/h 16.1 km/h 74% 0 mm
19:39 25.8 °C 21 °C 1015.1 hPa WSW 8 km/h 17.7 km/h 75% 0 mm
19:44 25.7 °C 20.9 °C 1015.1 hPa WSW 8 km/h 19.3 km/h 75% 0 mm
19:49 25.6 °C 20.8 °C 1015.1 hPa WSW 8 km/h 19.3 km/h 75% 0 mm
19:54 25.4 °C 20.9 °C 1015.1 hPa WSW 1.6 km/h 14.5 km/h 76% 0 mm
19:59 25.4 °C 20.8 °C 1015.5 hPa WSW 8 km/h 16.1 km/h 76% 0 mm
20:04 25.2 °C 20.5 °C 1015.5 hPa WSW 8 km/h 17.7 km/h 75% 0 mm
20:09 25.1 °C 20.4 °C 1015.5 hPa West 6.4 km/h 14.5 km/h 75% 0 mm
20:14 25.1 °C 20.5 °C 1015.5 hPa SW 8 km/h 11.3 km/h 76% 0 mm
20:19 25 °C 20.5 °C 1015.5 hPa West 6.4 km/h 12.9 km/h 76% 0 mm
20:24 24.9 °C 20.4 °C 1015.5 hPa WSW 6.4 km/h 8 km/h 76% 0 mm
20:29 24.8 °C 20.5 °C 1015.5 hPa SW 3.2 km/h 11.3 km/h 77% 0 mm
20:34 24.7 °C 20.4 °C 1015.5 hPa SW 6.4 km/h 14.5 km/h 77% 0 mm
20:39 24.6 °C 20.5 °C 1015.5 hPa WSW 6.4 km/h 14.5 km/h 78% 0 mm
20:44 24.5 °C 20.6 °C 1015.5 hPa WSW 6.4 km/h 14.5 km/h 79% 0 mm
20:49 24.4 °C 20.6 °C 1015.5 hPa WSW 4.8 km/h 11.3 km/h 79% 0 mm
20:54 24.3 °C 20.7 °C 1015.5 hPa WSW 3.2 km/h 8 km/h 80% 0 mm
20:59 24.3 °C 20.6 °C 1015.5 hPa West 4.8 km/h 12.9 km/h 80% 0 mm
21:04 24.2 °C 20.8 °C 1015.5 hPa WSW 6.4 km/h 14.5 km/h 81% 0 mm
21:09 24.1 °C 20.7 °C 1015.5 hPa SW 6.4 km/h 14.5 km/h 81% 0 mm
21:14 24.1 °C 20.7 °C 1015.1 hPa WSW 4.8 km/h 12.9 km/h 81% 0 mm
21:19 24.1 °C 20.8 °C 1015.5 hPa WSW 3.2 km/h 12.9 km/h 82% 0 mm
21:24 24.1 °C 20.8 °C 1015.5 hPa SW 6.4 km/h 11.3 km/h 82% 0 mm
21:29 24 °C 20.7 °C 1015.5 hPa WSW 8 km/h 9.7 km/h 82% 0 mm
21:34 24 °C 20.7 °C 1015.5 hPa SW 6.4 km/h 14.5 km/h 82% 0 mm
21:39 23.9 °C 20.7 °C 1015.5 hPa SW 4.8 km/h 14.5 km/h 82% 0 mm
21:44 23.9 °C 20.6 °C 1015.5 hPa SW 4.8 km/h 11.3 km/h 82% 0 mm
21:49 23.8 °C 20.8 °C 1015.5 hPa SW 3.2 km/h 11.3 km/h 83% 0 mm
21:54 23.8 °C 20.8 °C 1015.5 hPa SSW 4.8 km/h 11.3 km/h 83% 0 mm
21:59 23.8 °C 20.7 °C 1015.5 hPa SW 8 km/h 11.3 km/h 83% 0 mm
22:04 23.7 °C 20.8 °C 1015.5 hPa SW 4.8 km/h 11.3 km/h 84% 0 mm
22:09 23.8 °C 20.9 °C 1015.5 hPa WSW 6.4 km/h 11.3 km/h 84% 0 mm
22:14 23.8 °C 20.9 °C 1015.5 hPa WSW 4.8 km/h 11.3 km/h 84% 0 mm
22:19 23.7 °C 20.8 °C 1015.8 hPa SW 6.4 km/h 9.7 km/h 84% 0 mm
22:24 23.7 °C 20.8 °C 1015.8 hPa SW 4.8 km/h 11.3 km/h 84% 0 mm
22:29 23.7 °C 20.8 °C 1015.8 hPa SW 4.8 km/h 8 km/h 84% 0 mm
22:34 23.7 °C 20.8 °C 1015.8 hPa SW 1.6 km/h 8 km/h 84% 0 mm
22:39 23.6 °C 20.7 °C 1015.8 hPa SW 3.2 km/h 9.7 km/h 84% 0 mm
22:44 23.6 °C 20.7 °C 1015.8 hPa SW 3.2 km/h 9.7 km/h 84% 0 mm
22:49 23.6 °C 20.9 °C 1015.8 hPa SW 1.6 km/h 6.4 km/h 85% 0 mm
22:54 23.6 °C 20.9 °C 1015.8 hPa WSW 3.2 km/h 11.3 km/h 85% 0 mm
22:59 23.5 °C 20.8 °C 1015.8 hPa SW 4.8 km/h 8 km/h 85% 0 mm
23:04 23.4 °C 20.8 °C 1015.8 hPa Calm   4.8 km/h 85% 0 mm
23:09 23.4 °C 20.7 °C 1015.8 hPa SW 1.6 km/h 4.8 km/h 85% 0 mm
23:14 23.3 °C 20.8 °C 1015.8 hPa Calm   6.4 km/h 86% 0 mm
23:19 23.3 °C 20.7 °C 1015.8 hPa Calm   6.4 km/h 85% 0 mm
23:24 23.2 °C 20.7 °C 1015.8 hPa Calm   3.2 km/h 86% 0 mm
23:29 23.2 °C 20.7 °C 1015.8 hPa Calm   4.8 km/h 86% 0 mm
23:34 23.1 °C 20.7 °C 1015.8 hPa Calm   4.8 km/h 86% 0 mm
23:39 23.1 °C 20.6 °C 1015.8 hPa Calm     86% 0 mm
23:44 22.9 °C 20.7 °C 1015.8 hPa Calm     87% 0 mm
23:49 22.8 °C 20.6 °C 1015.5 hPa Calm     87% 0 mm
23:54 22.7 °C 20.4 °C 1015.5 hPa Calm     87% 0 mm
23:59 22.6 °C 20.4 °C 1015.5 hPa Calm     88% 0 mm
Buffalo, New York, USA
Compliments of Weather Underground - 2.5 mb